GFSFLT2_250_spd_114.txt.gz
Wind_Speed
35 36 35 39 39 38 38 32 34 27 28 27 34 34 43 47 53 38 44 35 36 37 39 37 29 28 28 31 31 31 31 30
39 37 34 38 39 37 34 32 34 27 28 25 30 35 36 51 53 46 42 39 41 36 35 37 30 29 26 29 27 27 31 34
40 41 37 37 40 36 31 33 32 29 26 25 26 29 29 33 45 41 40 44 42 37 29 29 28 27 23 20 21 21 27 34
42 42 43 36 40 34 29 30 31 28 26 27 25 26 29 34 36 39 44 43 37 32 32 27 23 17 17 19 18 20 20 27
48 45 45 40 41 32 28 29 31 28 24 26 25 23 27 29 40 39 37 34 28 33 25 24 20 15 15 15 12 15 17 23
49 47 46 42 45 35 29 28 30 29 25 25 25 25 25 33 36 39 36 29 29 30 26 24 18 7 10 8 9 12 15 17
50 49 50 43 40 33 30 29 29 28 26 25 26 24 25 29 35 39 39 31 36 32 27 17 14 11 10 6 10 11 18 18
50 47 43 39 39 35 30 30 29 28 26 25 29 26 29 26 33 39 40 38 40 32 25 15 14 11 11 12 11 15 11 13
52 47 41 41 42 38 34 31 31 28 27 25 27 27 31 25 25 37 40 46 41 35 28 18 18 13 18 16 11 12 11 16
47 46 43 42 40 37 33 33 32 29 28 24 28 27 33 30 25 32 42 49 47 37 30 25 15 13 9 9 8 9 10 13
46 46 45 41 37 38 35 33 34 29 28 25 26 27 31 33 25 29 43 52 53 44 36 30 19 15 10 9 9 7 9 17
45 45 47 46 43 42 39 35 33 29 26 23 25 28 31 33 25 27 38 51 58 43 39 37 29 20 15 13 13 10 9 11
47 48 47 42 43 40 39 37 35 31 27 22 24 28 31 31 29 31 38 52 62 47 38 34 31 26 21 16 18 14 8 7
50 49 47 43 47 41 40 37 36 34 28 22 24 29 32 31 29 28 39 50 61 54 46 42 36 34 28 18 20 17 15 7
50 48 48 49 49 40 39 36 34 33 30 24 24 26 32 32 29 30 38 46 55 60 51 40 41 38 36 32 27 26 25 18
54 52 53 48 49 39 38 36 34 32 30 23 25 25 33 32 31 34 40 45 54 58 50 47 50 36 33 35 25 30 30 30
54 56 50 50 47 39 39 37 37 34 30 27 26 25 35 33 34 31 39 39 42 45 50 48 40 37 36 31 36 37 31 27
58 54 53 49 42 38 38 36 36 34 32 27 26 23 36 36 35 30 40 44 37 40 47 40 39 40 29 37 37 35 34 31
55 54 54 49 43 39 38 38 37 33 31 27 26 21 37 39 36 37 40 46 41 44 45 42 41 40 37 42 40 34 36 35
54 53 52 49 43 38 40 41 37 33 30 26 23 18 37 43 40 41 43 46 44 50 42 44 49 53 44 51 41 37 40 44

GFSFLT2_250_spd_117.txt.gz
Wind_Speed
39 40 38 35 36 39 39 39 37 34 27 27 30 35 43 44 49 52 55 50 45 43 43 40 38 42 43 40 34 34 33 34
45 44 41 37 35 32 35 40 34 33 28 26 25 31 44 46 52 58 62 55 54 49 47 41 42 41 40 36 33 31 30 29
46 48 43 39 36 36 37 35 33 31 28 25 25 26 30 34 45 44 55 52 47 50 46 40 38 35 34 34 33 26 21 24
46 46 43 37 39 35 38 38 32 31 29 25 25 25 20 27 30 32 39 46 58 55 47 35 37 36 28 24 22 20 22 24
49 43 42 40 41 39 38 42 33 30 27 25 25 23 21 23 27 29 28 32 39 49 41 36 37 30 22 20 20 21 24 27
49 48 47 44 39 40 35 41 35 30 28 26 26 27 21 22 29 29 30 33 34 31 29 27 30 23 19 18 18 20 18 20
50 50 48 41 42 39 37 41 38 31 31 27 26 27 23 21 26 26 28 34 35 30 26 28 30 22 16 17 12 13 15 18
52 50 49 42 39 40 39 43 38 32 34 29 27 28 28 23 28 26 28 34 37 30 30 33 32 25 14 12 10 12 12 14
55 51 49 45 39 41 40 39 38 33 32 30 29 26 27 26 28 32 28 31 38 33 37 32 27 17 15 11 17 15 18 15
55 50 50 46 40 42 41 36 36 33 31 32 30 29 26 29 28 32 28 31 40 36 41 34 24 19 12 7 12 13 10 14
54 48 51 43 42 42 40 36 38 33 32 33 33 32 28 30 29 35 33 30 36 39 44 35 26 19 16 10 13 12 9 13
55 50 48 46 45 43 41 38 38 35 31 35 34 32 30 30 27 33 34 31 35 46 51 42 34 25 18 14 12 13 13 13
57 48 46 47 48 45 44 42 41 37 30 35 35 31 26 31 30 30 34 29 33 44 51 48 38 29 22 16 14 17 17 14
55 47 44 49 48 48 47 44 43 38 31 35 38 34 26 31 30 31 35 31 32 43 50 55 43 37 29 22 20 19 18 16
55 52 48 50 51 49 50 49 45 42 33 35 41 35 28 31 31 32 31 28 29 40 49 59 46 39 34 31 24 23 21 17
62 60 51 52 52 49 50 53 49 46 36 34 40 37 29 30 31 34 31 28 28 38 47 57 46 44 36 35 29 30 27 27
64 61 56 53 52 51 52 55 54 47 39 37 39 37 32 30 31 36 34 28 31 37 48 58 53 48 39 36 35 37 38 28
66 65 58 55 51 51 54 56 53 45 41 40 38 36 36 31 31 37 36 30 26 38 48 56 56 53 47 47 43 38 32 34
64 63 60 57 53 53 54 56 50 44 41 41 43 37 35 32 32 39 37 34 25 33 44 53 53 55 53 47 43 40 33 38
63 61 61 59 57 54 54 55 49 43 40 41 41 39 36 31 33 42 40 30 31 37 43 47 51 51 54 44 41 39 38 45

GFSFLT2_250_spd_123.txt.gz
Wind_Speed
38 35 35 34 34 30 32 32 32 34 39 35 36 34 28 28 48 45 42 45 44 48 46 41 42 45 51 42 38 34 33 34
40 37 35 35 33 32 33 35 33 34 37 35 35 36 30 29 38 56 49 50 50 50 46 47 46 49 52 49 44 37 37 40
40 38 37 37 36 33 32 35 36 36 37 37 34 34 31 28 36 48 54 54 48 56 55 49 50 53 55 56 52 49 45 46
41 40 39 39 38 37 34 37 38 38 37 40 37 33 33 27 34 41 45 46 43 47 57 59 58 53 51 50 55 58 55 46
39 40 41 41 42 39 36 40 38 39 37 39 39 38 31 27 28 36 37 32 35 38 48 55 55 58 60 58 51 53 54 51
44 44 46 46 47 39 41 46 41 40 38 39 40 38 27 28 27 31 32 34 29 31 37 44 48 45 46 50 51 49 50 46
46 43 48 49 38 40 47 48 44 41 38 38 40 37 32 27 29 30 32 31 32 29 31 32 38 36 32 30 28 28 30 31
41 39 39 39 43 45 49 49 47 43 38 36 37 37 35 32 29 33 32 30 30 33 33 34 36 33 24 22 23 27 27 26
46 46 43 45 48 50 49 50 46 41 38 34 35 37 36 35 32 34 35 30 28 31 31 35 36 30 25 24 24 25 27 26
53 51 52 53 52 51 50 51 49 43 42 38 36 36 35 36 34 35 36 32 26 26 31 32 33 32 28 27 26 28 27 25
55 50 54 53 53 53 53 52 49 50 43 40 40 36 34 36 33 34 39 35 31 25 28 33 32 33 32 30 31 30 24 23
57 54 58 57 55 53 56 53 50 48 48 39 41 37 36 37 35 33 41 39 34 29 27 32 35 33 36 35 37 33 25 23
60 57 59 61 58 56 54 53 51 49 52 44 42 40 39 38 36 34 39 41 36 36 31 31 34 33 35 35 39 33 28 26
64 59 61 61 58 54 54 54 50 47 51 48 45 43 42 44 41 39 34 43 40 38 34 33 35 37 35 36 38 33 31 29
58 57 60 57 59 54 55 45 51 48 46 48 47 47 46 47 44 39 36 40 43 39 36 34 34 39 36 43 44 39 35 28
58 59 58 53 54 50 44 43 47 47 46 44 46 50 49 46 46 40 40 36 44 41 38 34 37 41 35 40 52 43 43 32
59 58 56 49 47 47 43 39 42 41 45 48 54 50 53 50 46 43 41 36 44 42 38 33 37 39 38 40 55 53 40 36
57 59 58 51 49 49 45 44 46 49 51 52 54 52 55 50 44 44 42 37 43 44 39 35 36 41 42 40 48 58 50 44
61 59 60 53 51 58 61 60 59 60 51 52 53 53 55 52 47 44 42 39 42 44 41 37 36 40 44 43 45 62 56 53
64 61 54 51 54 58 59 58 55 56 55 51 50 52 53 53 48 45 44 40 41 44 41 38 36 40 39 43 41 49 65 56

GFSFLT2_250_spd_126.txt.gz
Wind_Speed
42 37 35 33 32 34 33 30 28 29 31 31 29 29 32 35 31 30 37 44 46 45 55 57 48 39 40 42 40 38 37 35
44 39 36 35 36 33 33 30 30 30 33 32 31 30 32 34 35 32 32 43 49 46 44 47 51 50 49 46 45 48 41 42
47 43 39 38 38 35 33 30 31 30 32 34 32 32 34 35 38 33 33 39 45 46 45 52 51 51 53 51 50 49 51 47
47 47 43 42 41 40 36 33 32 30 33 37 35 34 34 35 36 35 31 36 43 38 40 45 46 54 60 55 52 51 49 51
53 48 45 42 40 40 37 39 37 32 36 38 35 35 35 34 33 33 31 31 39 40 31 32 40 45 56 64 62 59 58 60
53 47 48 44 44 44 44 46 42 36 38 38 36 35 35 34 33 33 32 30 33 35 33 28 29 34 42 41 46 46 47 44
55 48 52 46 48 46 46 46 40 36 39 38 36 35 33 34 32 32 32 31 33 32 29 29 29 31 33 32 31 31 33 34
62 53 54 46 46 43 44 41 36 38 40 38 36 37 33 35 32 30 33 30 32 35 30 28 29 32 32 30 32 30 27 23
61 61 56 47 45 41 41 39 39 44 40 39 38 38 37 37 34 29 33 32 30 37 33 32 29 30 29 24 28 26 22 21
64 62 58 51 47 45 43 44 44 46 43 42 41 39 39 37 37 33 31 34 31 34 35 31 32 30 28 25 28 26 26 24
62 61 60 60 55 47 47 52 52 49 44 45 45 40 39 39 39 34 32 32 34 30 37 32 30 31 35 28 30 29 29 28
60 61 63 64 61 56 53 54 53 51 46 47 46 40 42 42 41 38 34 32 36 33 34 35 32 32 34 30 30 34 30 31
60 60 59 62 61 58 54 53 51 48 50 50 48 42 43 43 44 45 38 36 36 35 33 38 37 33 34 35 32 36 40 37
61 59 57 60 59 57 53 50 49 50 50 51 48 44 44 44 43 45 45 40 37 36 34 38 39 35 38 35 35 32 38 38
60 57 55 59 58 58 50 51 47 46 49 48 45 43 46 41 41 44 45 43 39 39 34 38 42 37 35 36 37 34 36 38
60 57 56 56 57 53 47 44 43 46 46 48 46 46 45 42 39 40 46 46 42 39 36 36 43 40 35 38 37 39 37 40
62 61 55 53 48 44 49 47 45 44 43 43 44 42 39 38 43 45 51 47 44 37 38 36 41 41 38 36 37 41 36 40
61 57 50 44 47 52 55 50 46 43 43 45 40 39 43 45 49 45 48 50 44 39 39 36 39 42 39 36 36 38 37 41
58 56 49 50 53 56 56 53 47 47 47 43 43 45 55 54 50 47 49 49 43 38 39 38 37 43 39 37 36 43 42 40
64 57 57 59 60 57 56 53 50 49 48 50 52 54 56 54 54 50 47 48 43 39 39 40 38 42 39 37 35 44 45 48

GFSFLT2_250_spd_129.txt.gz
Wind_Speed
49 48 48 44 40 39 39 38 36 34 31 28 26 28 29 32 35 33 32 27 32 37 48 52 52 46 45 45 40 36 37 36
50 52 51 45 43 39 40 38 36 32 28 28 26 27 31 32 35 36 34 32 29 32 40 47 55 57 54 50 49 45 41 42
50 54 53 48 46 42 39 38 37 32 30 30 27 28 33 31 33 37 36 32 29 29 36 38 44 53 61 55 55 50 49 53
49 55 54 53 50 46 42 39 39 36 33 32 29 30 31 32 31 34 33 32 31 27 34 37 38 44 43 54 53 55 57 58
52 54 56 55 52 50 43 43 41 37 34 35 33 31 31 31 30 32 30 28 30 28 28 34 33 33 36 41 43 52 53 56
55 55 58 56 55 53 46 41 40 39 38 38 39 32 31 31 27 32 30 29 29 28 26 30 31 30 29 33 35 30 36 40
65 59 60 58 56 54 50 44 43 44 43 44 39 33 30 29 29 32 30 27 29 28 26 27 30 27 25 31 30 27 27 28
67 66 62 59 58 57 55 51 45 42 42 38 36 36 30 31 31 30 34 29 29 28 28 25 29 29 24 28 29 26 27 25
69 72 66 63 61 59 59 55 47 40 43 40 37 40 36 32 33 34 34 32 27 28 29 26 27 30 28 27 30 32 33 30
77 74 72 66 64 61 59 57 49 41 42 38 39 42 42 36 36 35 34 35 33 27 29 30 24 28 29 30 30 25 31 28
77 77 73 70 68 62 60 57 51 48 45 46 44 45 46 40 36 35 36 36 35 30 30 29 26 27 30 28 31 29 27 29
78 76 75 71 69 62 61 56 52 54 51 46 48 50 50 44 38 38 38 38 37 37 33 32 28 26 32 31 31 29 30 33
77 76 74 72 67 64 62 60 56 54 52 50 52 53 51 45 40 40 40 38 39 39 40 35 33 30 32 34 30 28 32 32
81 76 74 68 67 67 63 62 60 54 53 55 54 54 49 45 40 40 41 39 38 37 36 40 37 34 32 36 37 32 34 38
84 78 74 70 72 72 64 61 57 54 56 56 53 50 49 42 41 39 40 41 38 35 36 39 40 37 35 33 39 38 35 37
87 82 77 70 74 70 63 61 57 54 54 51 49 48 43 39 42 37 42 39 35 33 37 42 40 40 37 35 37 39 36 37
86 83 76 71 69 65 63 60 56 56 52 47 47 41 41 42 42 41 40 33 33 38 41 42 41 41 39 35 37 41 35 38
79 81 80 73 67 64 63 59 56 50 49 47 38 41 43 42 41 43 41 37 42 43 43 42 43 40 38 36 37 40 39 36
79 80 81 71 67 66 63 59 52 52 48 39 41 44 44 43 42 39 40 42 45 45 47 44 40 38 37 36 36 40 39 34
78 78 78 74 66 62 59 55 50 45 41 42 45 45 47 45 45 41 45 47 50 48 47 45 43 40 38 36 35 41 40 34

GFSFLT2_250_spd_132.txt.gz
Wind_Speed
57 56 52 52 46 46 46 44 42 40 39 40 37 36 33 30 28 27 29 29 29 27 34 35 40 47 52 48 46 45 40 41
56 56 55 52 46 48 48 46 43 40 40 39 37 31 28 26 29 27 29 29 29 31 34 32 34 40 52 53 49 49 46 42
53 56 54 54 51 49 50 48 45 44 40 39 38 30 28 27 28 27 29 30 31 29 27 30 30 30 38 54 53 52 48 48
53 57 53 53 56 51 52 50 48 46 42 41 38 34 30 29 28 27 28 28 29 31 27 25 30 30 27 41 51 54 55 56
58 59 59 55 58 54 54 52 50 49 45 41 40 37 31 30 29 28 27 27 27 30 29 28 30 27 24 27 35 46 47 45
52 64 60 58 60 60 56 54 52 48 46 42 41 36 35 31 33 26 26 28 29 28 27 26 26 22 20 25 26 28 30 36
51 62 66 62 61 62 60 56 52 49 47 43 41 39 37 33 32 25 24 25 30 31 28 25 24 22 19 23 23 23 25 26
55 60 68 70 66 64 63 59 54 51 50 45 42 39 39 36 31 24 26 28 29 31 28 26 24 22 20 19 25 21 23 26
61 62 67 72 71 69 64 62 57 55 51 48 43 37 39 37 36 31 29 29 30 31 29 27 26 22 19 22 23 28 25 26
68 63 69 70 73 74 69 64 60 58 54 52 45 38 37 33 38 36 33 31 32 31 31 29 29 26 20 19 24 25 28 29
71 68 73 73 74 75 74 68 63 61 58 56 49 40 40 38 36 39 36 35 33 31 32 31 30 33 27 22 24 26 24 27
73 76 78 78 76 78 72 70 65 63 62 58 53 44 43 46 45 45 39 39 35 34 34 32 32 32 34 29 25 28 29 25
69 82 83 84 80 77 74 68 71 66 64 59 53 47 44 43 48 44 43 41 38 36 35 32 30 30 28 32 31 28 32 28
65 78 89 90 84 79 77 74 73 70 63 60 54 52 47 46 46 47 48 43 40 34 33 32 31 32 28 33 34 33 32 33
65 72 88 92 89 85 79 76 71 67 64 60 60 55 49 49 49 49 49 44 41 36 33 32 31 28 28 32 38 36 32 38
67 70 83 90 95 89 80 75 71 68 68 64 62 53 50 50 50 49 47 43 41 35 35 31 28 29 32 35 39 40 37 36
67 70 77 88 95 90 79 76 71 71 68 64 59 53 50 49 48 47 46 43 40 36 36 34 34 34 35 37 39 42 40 39
55 58 68 80 89 83 75 75 74 69 65 61 53 50 49 48 49 48 47 43 40 39 40 36 36 38 39 41 41 40 39 40
44 54 63 76 86 78 77 76 71 68 65 58 52 50 48 49 45 47 44 40 38 38 37 36 39 41 47 45 42 40 38 40
51 61 66 78 86 83 77 75 71 70 64 57 53 50 49 47 49 42 42 40 39 39 38 39 43 44 47 45 43 41 39 38

GFSFLT2_250_spd_135.txt.gz
Wind_Speed
49 50 47 49 50 52 53 54 52 51 44 40 39 38 39 39 38 35 30 25 25 23 30 33 29 31 31 34 37 38 43 41
42 40 45 42 46 52 52 54 52 50 45 41 40 39 38 38 37 33 27 22 22 18 25 28 31 31 24 30 37 43 42 45
39 38 34 37 44 51 51 54 53 51 48 44 41 40 37 38 37 34 29 22 21 19 18 26 26 24 26 24 30 39 46 45
46 45 45 44 39 48 55 55 56 54 50 47 45 42 39 39 37 36 31 26 24 21 16 19 18 26 28 25 25 31 41 47
54 50 55 52 44 45 59 57 58 56 52 49 48 44 41 41 39 39 36 29 27 22 24 26 30 24 28 23 20 23 29 36
59 63 60 60 51 44 55 64 59 55 54 51 49 46 44 42 40 38 34 33 27 22 26 26 28 27 30 23 19 18 22 26
70 71 70 63 61 51 53 63 66 60 56 53 51 51 44 42 40 37 34 33 28 23 27 27 26 23 24 25 21 18 18 21
77 71 67 63 62 59 57 60 65 66 62 55 54 52 45 41 39 38 33 33 27 24 27 29 29 25 20 23 21 20 17 19
71 69 67 64 63 63 66 63 63 65 67 61 56 53 48 42 39 39 34 32 26 27 28 29 30 29 25 22 18 23 20 18
72 68 68 67 66 65 68 68 66 64 66 66 60 55 50 45 37 37 37 34 33 30 29 30 31 32 29 25 20 18 24 24
74 69 66 71 71 67 71 75 68 65 66 65 64 58 52 49 39 37 33 33 36 32 31 32 33 35 31 28 26 23 18 24
77 74 66 72 74 71 73 75 71 69 67 67 66 61 55 53 44 39 40 38 38 34 34 35 35 36 32 28 26 23 21 20
79 75 74 72 70 73 78 74 76 74 71 72 68 63 57 56 48 41 39 43 43 39 37 36 37 37 34 29 26 26 26 23
93 74 76 73 70 69 83 81 79 78 77 71 70 64 61 58 52 44 39 40 44 40 37 37 39 39 34 31 29 29 26 28
95 86 78 74 72 71 79 89 88 85 74 70 69 68 65 60 53 45 42 40 43 44 40 39 40 41 38 33 30 31 29 31
85 82 76 72 74 69 76 87 88 84 76 76 71 71 68 62 54 47 45 44 45 45 42 42 40 41 39 35 35 32 30 33
74 71 72 71 71 67 73 84 90 86 81 77 72 67 66 61 56 50 47 47 46 45 43 42 39 41 39 39 35 35 34 36
64 63 65 65 64 63 68 80 91 88 81 75 71 67 63 60 57 51 48 47 48 44 41 40 41 40 40 41 40 38 37 39
57 57 55 60 57 60 68 77 90 90 83 76 73 67 61 59 54 50 50 50 48 45 42 41 41 41 39 42 42 39 38 45
45 44 52 57 60 63 70 78 83 89 85 79 70 66 62 58 52 51 51 51 48 43 41 41 40 40 38 40 40 40 42 45

GFSFLT2_250_spd_138.txt.gz
Wind_Speed
51 51 54 52 48 46 44 44 46 46 48 54 50 49 45 43 42 41 39 36 33 26 28 30 27 29 28 27 24 27 20 28
51 49 50 52 46 47 44 40 43 48 48 51 54 52 46 44 41 42 40 37 32 21 22 25 26 27 26 22 17 27 28 32
53 50 53 49 47 38 37 40 42 48 49 49 53 53 48 45 42 42 40 39 33 24 15 22 19 14 16 24 18 20 29 37
57 56 52 51 49 42 39 36 39 43 48 51 52 52 50 47 45 43 40 41 35 28 19 21 20 24 27 28 23 22 27 38
58 55 52 50 51 49 44 44 41 46 46 53 56 54 53 49 47 43 41 41 38 32 26 22 20 26 32 27 23 20 19 28
60 59 54 53 51 51 54 50 49 47 48 52 58 58 55 52 50 46 43 42 40 36 32 26 22 25 25 27 23 20 18 26
61 61 61 60 59 58 63 64 60 54 53 54 57 60 61 55 51 48 45 44 39 37 31 27 23 22 25 27 29 22 13 17
71 69 71 70 70 69 69 69 69 61 52 57 57 58 60 57 54 50 46 44 38 33 35 28 26 23 26 26 26 19 17 21
78 76 74 72 68 66 63 57 65 64 55 56 60 58 58 58 56 52 48 44 38 34 34 30 28 25 26 25 25 26 26 18
84 81 82 79 74 70 68 63 63 67 64 55 62 62 60 59 58 54 51 45 38 32 34 31 30 27 26 28 29 29 24 22
96 93 88 85 82 77 73 63 61 66 69 57 62 64 62 60 59 56 53 46 40 32 33 36 35 31 28 29 30 31 27 23
95 96 92 87 87 84 78 70 62 64 68 65 64 65 64 64 60 58 55 49 41 37 31 34 36 35 31 31 31 33 30 25
100 101 98 94 91 85 78 72 68 64 71 72 68 69 66 66 63 59 57 53 41 41 41 36 37 37 35 34 34 35 34 30
110 114 103 87 79 86 80 78 73 71 74 73 72 71 67 68 65 61 57 56 46 40 43 44 42 41 38 37 36 37 37 35
110 103 116 93 78 78 80 81 77 70 71 71 73 72 70 67 67 62 58 57 49 41 40 43 43 42 39 39 38 39 41 36
92 88 96 90 79 78 73 76 73 64 71 74 79 76 75 68 70 65 60 57 51 43 40 40 44 44 43 42 42 42 41 38
67 65 73 71 70 75 69 70 64 78 75 73 80 83 77 75 70 67 62 59 54 45 44 42 42 43 45 44 43 42 42 38
52 54 51 51 57 63 61 74 74 78 84 85 81 85 78 78 71 69 66 62 56 49 45 43 44 43 45 43 42 43 43 40
40 38 39 44 49 48 58 74 75 83 87 79 82 83 81 75 72 68 67 65 56 49 46 45 47 44 44 42 43 46 44 44
32 31 35 41 43 47 60 67 73 81 80 85 83 81 78 76 76 67 65 63 55 49 48 47 47 45 45 45 46 44 41 42

GFSFLT2_250_spd_141.txt.gz
Wind_Speed
53 53 52 49 50 52 53 50 46 41 41 45 47 49 53 50 52 47 49 44 43 42 36 29 26 31 25 21 20 16 19 30
56 54 52 52 49 49 51 49 48 44 42 42 43 48 51 51 52 48 50 45 42 41 35 24 21 20 17 18 15 7 17 21
57 57 57 55 53 51 53 52 47 45 41 42 43 45 50 50 51 50 48 46 43 39 36 27 21 20 17 18 15 15 16 28
62 64 63 58 56 53 55 56 49 44 43 44 46 47 50 52 52 51 48 46 43 39 37 29 26 26 26 23 24 21 14 19
66 66 67 64 59 55 54 53 52 48 45 41 40 44 45 48 51 52 50 49 43 40 37 31 29 26 25 22 26 20 18 18
72 72 70 64 59 56 55 55 53 55 50 48 45 41 46 49 50 53 52 51 45 42 37 35 32 31 28 25 24 20 19 21
77 72 64 61 57 54 56 56 58 54 54 53 50 50 45 48 50 51 52 52 47 45 41 36 33 33 32 27 22 25 21 14
79 72 67 63 63 62 60 61 61 61 59 63 59 56 57 51 52 52 52 53 51 48 44 35 33 31 31 28 27 26 17 14
77 75 72 70 70 69 69 68 66 65 63 66 71 66 63 55 54 54 53 54 52 48 45 35 32 36 33 33 29 25 21 20
79 79 79 78 77 78 79 78 75 73 66 63 63 65 64 55 56 55 53 54 53 48 45 38 33 34 34 35 33 27 25 22
86 87 86 86 87 87 86 87 87 82 79 74 63 60 55 57 57 58 55 56 54 50 46 41 34 34 37 38 36 33 29 23
90 94 96 97 96 95 95 94 92 87 83 80 73 64 56 61 58 60 57 57 56 53 49 42 33 32 34 39 39 34 30 27
101 101 101 105 102 102 100 98 90 89 82 79 77 70 59 59 62 59 60 57 59 56 52 46 39 35 35 38 39 37 32 31
102 109 110 109 108 105 105 99 93 88 85 76 75 74 63 58 64 61 62 58 60 58 54 50 43 38 38 39 40 37 36 33
109 110 112 107 105 106 93 91 83 77 78 79 73 72 68 61 64 66 65 60 60 60 56 53 48 39 41 44 42 39 38 36
107 106 104 107 102 104 97 80 72 78 80 79 72 74 73 64 62 66 66 63 61 63 58 54 52 40 38 41 42 42 40 38
100 95 88 83 78 77 88 77 74 72 79 77 74 71 77 72 65 63 69 66 63 63 60 56 53 41 39 40 41 41 41 40
82 71 72 70 67 62 64 72 77 72 66 69 74 76 77 68 61 61 71 69 65 64 62 58 53 45 42 41 40 41 40 39
66 61 59 56 53 55 55 64 64 65 65 64 62 72 74 61 59 57 69 72 69 66 65 60 56 49 45 40 41 42 41 40
43 40 39 39 42 48 50 47 55 61 59 57 57 58 78 62 67 63 68 72 71 67 67 63 59 52 47 43 41 43 41 42

GFSFLT2_250_spd_144.txt.gz
Wind_Speed
52 51 52 52 50 51 52 52 50 50 48 41 40 36 39 42 46 47 45 44 44 45 42 41 36 27 20 18 9 16 15 14
53 55 55 54 50 51 52 54 52 49 49 48 44 42 40 42 41 44 44 43 44 46 42 41 34 23 17 17 8 8 24 31
58 56 57 54 54 54 52 54 56 53 52 51 48 46 43 42 42 43 40 44 44 42 42 39 34 25 21 20 11 9 11 28
63 62 58 61 61 58 56 54 57 58 55 51 52 49 45 43 43 45 43 43 44 42 43 39 34 27 24 23 18 14 8 22
68 65 65 67 67 65 63 60 58 60 58 56 53 51 45 44 45 45 49 46 46 42 41 39 35 29 25 25 18 17 18 21
71 74 73 73 72 72 69 62 61 55 55 58 56 53 50 48 41 40 42 44 45 42 42 40 37 31 26 28 24 19 23 26
75 76 76 75 73 74 73 68 61 54 52 57 59 56 56 50 48 42 42 43 43 44 42 42 39 35 28 31 30 27 23 24
78 78 78 77 76 74 70 68 59 54 49 54 59 58 58 53 51 50 44 43 44 44 44 41 39 36 32 28 30 31 30 27
75 76 76 79 76 76 74 70 65 56 56 57 61 59 58 56 54 54 57 51 47 46 46 43 42 38 36 31 30 29 32 27
82 81 80 80 80 78 78 76 73 68 62 60 61 65 66 64 56 54 61 62 55 51 49 47 44 42 36 32 33 33 35 35
82 83 83 82 82 83 83 83 82 77 74 70 68 69 67 68 69 53 48 61 62 56 53 49 47 43 40 32 33 33 35 37
83 84 86 88 89 88 89 90 91 89 82 80 74 73 72 74 69 64 49 52 59 58 54 51 48 46 44 40 32 33 37 37
86 87 93 95 95 101 99 98 98 97 94 86 83 80 78 72 75 67 49 48 57 60 55 54 49 47 47 41 39 35 41 40
87 89 93 100 102 102 100 102 99 97 99 94 85 84 83 73 74 69 53 46 54 64 61 54 51 50 48 45 43 40 39 41
88 91 96 99 103 103 102 102 101 98 94 89 79 79 86 81 76 71 60 46 50 64 64 56 55 52 51 49 46 41 42 42
83 89 95 100 100 100 101 95 97 96 91 83 66 56 48 72 77 77 67 53 50 58 66 65 56 53 53 51 45 43 45 42
89 90 94 95 95 94 91 86 85 83 79 72 60 38 63 90 77 80 63 52 45 53 64 67 60 56 55 52 46 44 42 43
82 83 83 78 77 72 69 65 66 70 73 65 56 62 62 73 77 72 59 54 47 51 55 65 66 59 55 56 50 45 43 42
75 69 72 69 63 62 60 53 52 54 64 56 48 75 69 67 45 58 60 60 57 44 54 62 71 63 59 58 52 46 44 39
62 60 59 59 53 52 53 50 41 41 47 41 44 62 51 37 49 80 76 68 68 68 57 58 71 69 62 59 56 49 46 41